Location: Poughquag
(41.6090°N, 73.6820°W)
Time: 12:08:58
(UTC-04:00)

Vanguard 2 Rocket - Pass Details

Date: 02 June 2020
Orbit: 556 x 3324 km, 32.9° (Epoch: 06 July)

Event Time Altitude Azimuth Distance (km) Brightness Sun altitude
Rises 22:33:08 0° 269° (W) 6,063 11.6 -18.3°
Reaches altitude 10° 22:39:12 10° 251° (WSW) 5,526 11.0 -18.9°
Maximum altitude 22:48:11 17° 220° (SW) 5,464 10.6 -19.8°
Drops below altitude 10° 22:58:21 10° 188° (S) 6,265 10.7 -20.7°
Enters shadow 22:58:24 10° 188° (S) 6,271 10.7 -20.8°
Sets 23:06:21 0° 171° (S) 7,244 - -21.4°
